< < Back
Terminal Aerodrome Forecast


Current Version              Previous Versions:   1  2  3  4  5  6  7  8  9  

Terminal Aerodrome Forecast

791
FTUS42 KCHS 251131
TAFCHS
TAF
KCHS 251131Z 2512/2612 10008KT P6SM BKN060
     FM251800 14012KT P6SM BKN050
     FM260000 13006KT P6SM SCT025 SCT250=

Latest METAR

770
SAUS80 KWBC 251900
MTRCHS
METAR KCHS 251856Z 12010KT 10SM BKN035 BKN080 27/18 A3029 RMK AO2 SLP255
T02670183


USA.gov is the U.S. government's official web portal to all federal, state and local government web resources and services.